GFSFLT2_925_spd_132.txt.gz
Wind_Speed
3 5 9 13 13 14 14 14 14 15 17 18 19 20 21 21 21 22 22 20 19 18 16 14 14 13 13 12 11 12 10 9
4 6 7 8 9 14 14 14 15 15 16 17 19 19 20 21 21 22 22 20 19 18 17 15 14 14 13 13 12 13 12 11
6 6 7 8 9 9 13 15 15 15 16 17 18 16 17 19 20 20 23 21 19 18 17 16 15 15 15 15 14 12 12 13
6 6 7 7 8 8 8 10 11 13 14 14 16 16 17 18 19 23 22 21 19 18 18 17 16 14 13 16 15 14 13 14
8 7 6 6 7 8 8 9 9 11 14 15 15 17 19 19 19 18 20 20 18 20 19 17 16 16 15 14 14 15 15 14
12 10 6 5 7 8 8 7 7 9 11 12 16 17 17 19 20 20 18 20 21 20 19 19 19 19 18 17 17 17 16 15
16 15 11 8 5 5 6 9 8 8 8 11 14 19 18 18 18 18 17 18 20 20 19 20 20 20 19 20 20 19 19 18
16 16 15 11 5 2 3 4 6 7 7 7 10 13 16 17 18 18 19 19 18 19 22 21 21 19 19 20 22 21 20 20
19 17 16 14 13 9 9 7 3 1 2 5 6 4 8 14 17 18 20 19 18 15 19 22 22 19 21 20 21 22 24 23
18 18 17 14 13 13 11 13 10 9 8 6 4 6 7 9 8 9 13 17 16 15 18 19 25 19 21 16 20 23 23 25
19 20 21 18 13 8 9 10 9 9 9 10 12 11 10 9 9 12 14 11 16 18 21 19 20 23 25 26 26 25 27 24
18 19 20 17 15 9 7 8 8 8 9 11 12 11 12 11 9 9 9 10 12 17 21 21 19 17 17 21 24 32 32 26
20 20 21 19 18 16 8 12 9 9 10 13 13 13 12 11 10 11 10 10 12 15 17 18 24 27 20 20 34 34 40 25
18 20 20 19 16 15 12 12 7 7 11 13 14 15 14 12 12 12 11 12 12 12 12 12 15 19 12 19 8 22 27 27
17 18 18 19 18 15 14 10 11 9 14 13 16 15 14 13 12 12 12 12 13 15 13 13 13 14 17 14 7 10 14 23
14 15 17 18 18 16 16 14 14 14 14 15 16 14 15 15 14 13 13 14 13 16 15 15 14 17 13 24 30 27 9 9
13 14 14 16 16 16 15 14 14 15 16 18 16 15 14 15 15 16 16 16 15 16 19 17 17 19 20 18 19 24 29 14
12 14 15 16 16 16 16 16 17 17 18 18 18 18 16 15 16 18 16 16 16 18 19 20 19 19 21 22 21 11 11 17
13 15 15 16 16 16 15 16 16 16 17 17 20 19 18 19 21 19 19 19 19 21 22 22 21 21 21 22 25 25 25 24
13 14 15 16 16 16 15 15 15 15 16 17 17 18 19 20 21 21 19 19 19 19 21 23 21 23 24 25 25 27 26 25

GFSFLT2_925_spd_135.txt.gz
Wind_Speed
1 3 6 11 11 12 12 12 13 13 15 16 17 18 19 21 21 21 22 21 19 19 18 17 16 15 14 12 11 10 10 13
3 2 5 7 8 11 12 13 13 14 15 17 18 19 20 21 21 22 21 21 20 20 19 18 17 16 15 14 12 11 12 13
3 4 4 6 7 8 9 13 14 15 15 16 18 17 18 20 22 21 22 22 22 22 20 19 18 17 16 15 13 11 12 12
10 6 6 7 8 7 6 8 8 10 12 13 14 16 18 20 22 23 25 24 23 23 21 19 19 15 17 18 16 13 14 15
14 15 11 8 11 9 10 11 7 8 11 13 14 16 19 19 21 19 21 24 23 23 21 21 20 19 20 18 15 14 15 16
13 14 12 11 9 10 6 4 6 7 8 9 12 15 16 18 21 21 23 23 25 26 25 24 23 22 20 17 15 14 15 16
15 14 13 11 10 6 6 4 5 7 8 7 10 12 14 15 19 20 21 23 26 28 29 27 27 26 24 21 19 20 17 17
15 15 15 12 11 9 6 6 4 2 3 4 6 9 12 16 16 18 22 23 25 27 27 27 25 24 23 23 23 21 17 19
16 15 15 14 11 10 10 10 10 9 8 8 8 8 8 10 12 13 17 21 24 25 26 31 20 20 24 23 23 21 22 23
15 16 15 14 12 10 9 10 10 11 12 13 12 13 13 14 12 14 17 14 12 15 19 16 19 17 20 22 20 22 24 23
16 16 17 15 13 9 9 10 10 10 10 12 15 14 15 14 12 12 15 15 15 10 13 11 13 18 25 26 23 23 25 21
15 17 19 15 13 10 7 9 8 9 10 13 15 14 15 15 12 13 15 14 14 12 11 11 14 18 21 22 25 28 25 22
16 17 19 17 16 15 13 12 10 10 11 13 14 16 16 16 14 15 15 15 16 16 14 13 15 14 17 20 26 26 22 22
15 17 18 19 16 15 14 12 11 9 12 13 14 17 16 15 15 15 16 17 17 16 15 16 15 14 8 10 7 17 25 30
13 14 15 16 16 14 15 12 12 13 16 15 18 17 16 16 16 16 16 15 15 16 16 17 19 16 14 7 3 6 9 21
10 12 14 15 16 15 15 14 15 15 16 16 18 16 17 16 17 17 17 17 16 15 15 16 17 21 19 17 21 17 7 11
9 10 13 14 14 14 14 15 15 15 17 19 17 17 16 17 17 18 19 19 18 18 17 16 16 19 20 20 20 22 24 9
10 11 13 14 15 15 15 15 15 17 18 18 18 18 18 17 19 20 19 19 19 20 20 19 18 19 20 21 22 16 16 13
9 11 13 14 14 14 14 14 14 15 17 17 19 19 19 20 22 21 20 20 21 21 21 21 20 21 20 21 22 24 26 25
9 10 10 12 13 13 14 14 14 14 15 16 16 17 18 20 20 20 20 20 20 20 20 21 20 22 21 22 23 24 25 28

GFSFLT2_925_spd_141.txt.gz
Wind_Speed
9 10 8 2 4 7 7 7 7 7 8 9 11 12 14 15 17 18 20 20 20 20 21 21 20 19 18 17 15 13 13 12
15 9 7 4 6 4 6 6 7 9 10 11 12 13 14 15 16 18 20 22 22 22 22 21 21 22 21 19 18 16 16 15
18 16 16 17 9 10 6 4 7 8 11 13 12 13 15 16 16 18 21 23 24 24 25 24 24 24 24 22 20 20 18 19
19 16 15 14 15 20 6 6 4 3 8 12 8 7 10 13 15 16 19 22 26 27 28 28 26 27 27 25 24 23 22 21
21 18 15 16 15 15 16 14 6 2 6 5 3 3 5 10 12 15 18 19 24 26 30 30 30 30 30 28 28 27 27 24
21 21 17 19 19 16 14 12 10 6 9 9 7 7 11 12 13 12 12 14 18 24 29 31 32 34 33 27 22 28 30 27
21 21 17 19 20 19 17 17 12 11 14 16 15 13 12 14 15 16 17 16 16 18 21 25 29 25 12 17 27 26 29 27
15 17 18 16 18 19 19 19 17 16 15 16 15 15 15 16 16 17 16 17 16 20 19 19 16 13 14 12 17 22 22 25
18 18 18 17 16 16 19 18 19 18 18 18 16 17 17 17 18 17 19 17 16 16 13 14 12 11 13 12 23 34 33 34
16 15 19 20 20 18 17 19 16 18 19 19 20 20 19 17 18 19 19 16 15 17 19 16 15 12 13 6 20 19 29 37
16 15 18 18 18 19 18 18 17 22 20 22 23 23 21 19 19 20 18 17 18 21 16 18 16 14 10 11 13 17 26 35
14 15 15 16 16 13 16 18 18 21 19 22 23 22 22 22 21 20 21 20 20 20 19 15 15 17 16 15 16 19 21 27
14 15 15 14 18 16 17 18 18 20 20 21 24 21 23 23 21 21 23 20 19 19 22 20 16 19 9 12 14 17 21 25
14 14 16 16 15 13 12 14 16 17 17 21 21 23 21 19 21 21 21 22 21 21 23 20 12 18 9 10 3 5 7 17
13 14 15 16 15 15 13 12 16 21 21 20 21 20 21 23 23 23 23 21 21 20 20 21 16 15 16 5 3 3 6 8
13 13 14 15 15 17 18 19 16 17 18 16 18 19 22 24 24 24 23 20 20 18 17 15 17 18 17 10 13 10 3 5
14 11 13 13 15 17 17 17 16 15 17 18 19 20 22 26 26 24 22 19 18 17 16 15 13 15 15 15 18 20 15 6
13 12 13 13 14 15 16 17 16 18 19 19 20 20 21 26 25 22 21 21 20 19 17 15 14 14 15 16 14 8 11 8
14 12 14 13 13 14 15 15 16 18 18 19 19 19 21 24 23 22 22 21 21 20 19 17 17 16 16 15 17 18 16 15
15 13 12 12 13 13 13 14 15 16 16 18 19 20 20 21 23 22 23 23 22 20 18 18 18 17 16 17 17 17 18 19

GFSFLT2_925_spd_144.txt.gz
Wind_Speed
14 10 6 2 1 2 4 5 6 7 7 7 8 9 11 13 15 18 19 20 20 19 19 19 20 19 17 15 14 14 15 14
17 14 11 4 2 2 5 5 6 6 7 8 9 9 9 12 14 18 20 23 23 23 22 21 23 21 21 18 17 16 17 17
20 18 15 12 12 0 3 3 6 6 5 7 8 9 8 9 12 15 19 23 26 25 25 25 25 24 23 21 18 19 19 19
23 20 17 14 16 11 3 2 2 2 6 6 4 4 5 4 7 12 15 19 23 25 26 27 26 26 26 22 20 20 21 22
24 21 19 17 12 11 10 5 6 8 8 7 7 4 5 7 9 12 13 14 13 17 19 21 24 26 24 21 16 11 18 25
23 21 22 20 17 14 11 11 9 11 13 13 12 11 12 12 14 14 15 17 17 18 18 18 19 18 17 3 3 7 13 18
20 18 19 19 20 17 16 15 15 15 15 16 16 15 16 14 11 12 14 16 17 17 17 16 14 9 8 10 8 14 24 26
16 18 17 16 19 17 18 17 18 19 19 19 17 17 16 14 11 13 14 14 13 13 13 13 12 6 7 13 15 27 32 47
17 18 19 18 18 19 18 17 17 19 19 19 20 20 18 16 15 16 15 14 12 11 11 9 9 11 7 11 16 22 33 31
15 15 17 19 20 19 18 19 18 19 19 20 21 20 20 18 18 18 16 14 14 13 14 13 11 10 12 13 12 17 27 26
16 13 14 14 17 20 21 21 21 22 21 21 21 20 18 18 18 18 17 16 16 17 14 15 15 16 14 13 13 16 19 19
15 13 11 12 14 20 19 22 18 20 21 20 19 19 18 17 18 19 19 19 19 19 18 14 12 19 17 16 16 19 20 22
15 13 11 9 11 11 16 19 16 18 19 18 17 18 18 19 19 20 20 20 19 20 22 21 14 21 13 12 15 15 21 22
17 16 13 12 11 11 11 8 14 15 15 17 17 17 18 18 19 20 19 18 19 20 21 20 11 20 12 10 4 5 5 12
18 16 14 13 12 11 12 10 13 17 18 16 18 18 19 19 18 17 17 18 19 18 18 19 15 13 17 4 4 3 8 8
18 15 14 13 12 14 16 17 14 15 14 15 18 19 22 21 20 19 18 17 16 15 14 15 15 15 14 8 11 11 3 5
18 17 15 13 13 14 14 17 15 13 14 16 18 20 22 21 20 19 19 17 15 15 15 14 13 12 12 14 14 14 15 6
17 17 15 12 13 13 14 14 14 15 16 18 18 19 21 21 20 19 18 17 16 15 13 13 14 13 14 13 11 7 11 8
18 14 13 11 12 13 13 14 14 16 17 17 18 19 21 20 20 21 21 17 16 15 16 16 15 13 13 14 15 14 14 17
16 14 13 11 10 11 11 12 14 15 15 15 15 15 17 17 18 20 20 20 19 17 17 16 15 15 13 14 14 17 18 17